RH
72 78 82 81 81 87 85 86 92 86 82 75 64 58 41 32 34 30 22 20 26 22 18 19 22 33 36 39 53 66 66 65 67 47 24 19 22 25 28 30 28 30 34 32 23 14 13 13 13 13 12 12 11 11 11 11 11 10 9 9 10 9 9 12 13 14 13 12 14 16 18 21 24 27 30 32 33 37 34 25 22 25 27 33 37 40 41 44 45 44 47 48 45 44 42 43 46
70 79 82 82 83 87 86 85 88 84 82 77 69 59 42 35 36 36 24 15 24 22 18 19 21 31 34 37 49 60 56 46 42 31 18 18 20 23 27 30 32 32 29 23 17 12 11 12 11 12 11 12 12 11 12 13 11 12 13 10 8 9 11 15 15 13 14 15 19 22 26 29 32 33 31 30 32 35 33 28 27 28 32 33 36 41 40 44 48 47 49 49 46 44 44 46 49
69 79 80 80 83 87 89 89 90 87 83 76 67 55 48 44 35 27 16 12 23 22 20 20 22 29 34 41 49 47 38 29 24 21 18 17 19 24 30 34 33 29 24 17 12 12 12 12 12 12 12 12 12 12 12 11 15 21 23 18 12 14 17 20 18 15 18 19 21 24 30 33 33 34 32 32 35 34 32 33 35 35 34 34 38 42 42 47 50 49 51 51 46 43 46 49 52
66 75 75 76 80 86 92 93 95 88 82 76 62 50 43 36 25 19 14 16 27 25 21 20 25 38 46 45 42 35 28 25 22 21 20 16 20 26 33 35 28 19 16 14 12 12 12 12 12 11 12 12 11 11 11 13 21 23 18 17 15 16 17 15 14 16 18 18 18 22 30 34 32 35 36 38 39 35 34 37 40 40 39 40 44 47 45 46 49 52 54 52 45 44 49 53 57
62 69 70 72 75 83 93 94 95 86 77 72 60 51 35 17 13 20 21 22 27 25 20 21 26 37 45 39 33 30 28 26 23 20 18 16 18 25 32 31 23 15 12 13 12 12 11 11 11 11 11 12 13 13 15 19 25 20 12 14 16 19 21 20 19 21 23 24 23 25 35 40 40 40 43 48 45 41 42 43 45 46 47 48 48 49 45 43 48 53 53 49 45 48 54 59 61
57 66 66 68 70 76 92 93 92 85 76 71 62 49 26 9 12 20 29 30 27 23 21 25 29 30 32 31 30 29 30 30 24 19 17 15 13 17 23 23 19 14 12 12 12 12 12 12 11 13 13 15 21 23 21 24 27 23 21 26 32 35 37 38 37 38 38 37 38 43 49 53 54 51 53 57 52 49 50 49 53 56 57 54 52 51 45 42 47 52 49 48 48 52 59 64 66
51 61 61 70 71 67 87 89 83 80 73 71 64 49 22 9 16 20 31 33 22 21 27 32 33 31 29 27 28 26 30 30 23 20 18 15 12 12 15 18 16 11 12 12 12 13 13 14 16 17 20 26 33 36 35 39 42 40 42 45 48 48 47 50 50 52 54 55 58 62 64 65 66 65 65 65 61 61 61 61 65 67 67 63 60 57 50 45 46 48 47 49 52 56 63 69 70
38 51 56 68 68 61 83 89 81 77 72 68 63 52 25 11 16 16 28 33 19 22 33 38 35 33 30 25 26 25 26 28 24 23 20 16 14 12 13 13 12 11 12 13 14 15 16 18 22 28 35 42 43 44 49 53 55 53 53 53 54 52 50 53 55 57 59 65 71 72 73 74 74 72 73 73 72 74 76 76 74 73 74 71 67 62 56 51 46 46 50 53 56 60 67 71 67
24 39 46 56 64 65 83 88 80 75 73 69 62 56 30 12 13 12 23 27 19 23 32 37 34 31 28 24 25 25 25 27 26 25 23 21 18 16 15 13 14 15 15 17 18 18 21 23 29 41 48 50 49 51 55 55 54 54 54 55 55 53 53 56 59 60 63 67 70 72 71 71 70 70 74 75 73 75 79 79 78 78 78 77 72 64 62 59 51 50 57 58 59 64 70 70 56
22 28 31 51 65 65 76 78 74 72 75 73 65 60 36 12 8 10 17 18 16 24 31 34 31 26 25 24 24 25 26 26 25 25 25 25 24 22 20 19 19 20 21 23 24 25 26 29 37 46 49 48 49 52 53 53 52 54 55 57 57 57 58 60 60 61 66 69 68 68 65 61 62 66 69 69 67 68 74 76 78 81 81 80 76 71 71 69 60 59 65 64 64 66 68 61 42
26 27 29 51 57 55 67 70 72 68 75 83 70 61 42 16 7 10 12 12 18 27 33 31 27 24 24 24 23 24 25 26 25 24 26 27 28 27 25 24 24 25 28 30 31 32 34 37 43 46 47 47 47 48 51 57 56 54 55 54 55 56 55 53 53 53 56 60 61 61 59 58 58 61 64 64 65 64 70 75 78 80 80 81 80 82 82 78 72 68 70 71 68 65 60 47 30
25 30 34 44 47 58 66 63 69 59 67 87 74 64 47 19 7 7 11 11 16 33 37 28 27 26 22 22 22 24 24 25 25 23 26 28 29 30 30 30 30 30 33 36 36 36 41 46 47 47 46 43 43 45 49 56 56 52 50 51 53 51 48 50 54 57 58 56 54 55 55 55 55 54 57 62 65 63 66 72 76 77 78 80 81 85 86 83 78 73 75 76 67 57 46 31 21
26 31 33 41 50 64 65 56 62 55 64 81 74 71 53 31 20 6 11 13 14 35 39 31 36 30 21 21 21 22 24 25 24 23 24 27 31 33 33 33 33 36 40 40 39 42 47 48 44 44 43 41 44 49 51 54 56 51 48 54 60 57 52 55 62 64 62 57 52 52 50 47 48 51 55 62 65 64 67 70 73 76 76 77 77 80 84 82 78 78 81 73 58 44 30 20 17
30 32 29 40 51 62 68 58 58 54 63 76 71 73 61 46 34 9 8 13 13 28 36 37 35 26 19 20 21 21 23 24 24 23 24 26 30 32 34 35 35 39 45 41 41 48 50 49 44 41 45 45 44 48 50 53 55 52 51 57 63 64 60 57 58 61 59 55 51 50 52 51 50 53 57 61 62 64 68 70 69 70 72 73 74 77 80 80 81 83 77 62 45 30 19 17 17
31 32 28 38 53 66 72 63 61 55 58 71 66 70 70 49 21 7 12 11 13 21 31 35 29 30 26 17 20 21 21 24 25 24 25 27 29 33 34 35 36 38 44 40 41 48 47 48 42 39 50 48 40 41 43 47 51 53 55 58 66 65 60 59 58 60 58 53 51 52 55 54 54 56 58 60 60 63 68 69 67 68 72 75 77 78 78 79 80 76 64 50 34 19 16 17 19
33 32 32 38 51 62 69 65 66 59 57 72 69 68 75 54 15 8 14 9 16 18 25 36 36 44 38 28 25 18 21 23 25 26 25 28 30 33 33 35 37 36 39 37 38 45 48 51 45 39 45 46 41 37 37 44 49 54 59 62 70 65 57 62 61 54 50 47 49 54 55 53 55 55 59 64 61 61 64 64 65 70 75 77 76 76 73 71 70 63 50 38 24 15 16 18 20
35 34 38 44 50 54 57 58 58 57 65 80 79 73 76 61 21 8 12 9 17 16 22 37 42 45 37 37 30 15 20 23 25 27 25 27 29 32 33 35 37 37 37 34 35 38 41 47 49 43 40 44 42 35 36 46 52 53 59 64 66 64 64 65 57 49 45 45 49 54 56 53 54 54 59 66 61 59 60 59 61 67 72 72 70 68 65 61 57 50 39 29 20 17 18 19 20
31 35 42 49 50 45 42 40 41 49 71 86 87 83 79 62 22 7 11 8 13 14 19 31 43 47 32 26 20 14 20 22 25 27 26 27 26 29 31 34 36 37 36 34 33 33 32 33 37 36 35 40 39 39 41 48 61 58 55 64 66 65 67 61 50 45 41 40 46 53 55 54 53 53 59 62 61 61 59 58 61 65 67 66 64 62 60 57 52 45 35 25 21 20 21 22 21
33 37 40 44 39 34 29 26 33 48 71 86 92 88 80 68 32 8 9 9 13 13 18 25 38 42 27 21 15 14 18 20 26 26 26 26 25 27 28 31 33 34 34 34 34 34 34 30 30 28 28 36 45 59 55 49 64 65 59 62 64 66 65 57 48 43 41 38 42 50 52 50 49 52 59 57 56 59 56 57 62 63 64 61 59 59 58 58 57 52 38 28 27 28 27 25 25
41 39 37 40 33 28 22 25 43 59 77 89 94 89 84 73 31 6 8 10 12 12 19 22 27 30 23 21 14 13 17 19 25 26 27 27 27 27 26 28 29 32 32 33 35 34 34 31 32 29 28 37 50 67 57 49 60 59 62 62 59 67 63 54 49 43 45 45 42 46 50 49 48 49 53 52 51 53 52 54 57 58 59 58 57 57 57 59 58 51 39 32 32 32 29 28 28
45 37 35 39 33 25 24 40 59 69 88 96 93 90 87 60 14 3 9 10 15 15 23 22 22 28 21 16 13 14 17 20 24 26 28 28 29 28 27 27 27 30 30 32 34 33 33 31 31 29 30 33 40 54 48 51 62 51 53 55 54 68 63 49 47 47 51 51 45 46 50 50 49 48 47 48 47 47 49 51 51 53 55 56 57 57 55 54 51 44 36 31 30 29 28 26 26
50 41 39 42 32 24 34 58 68 74 96 98 91 89 74 35 4 4 10 26 35 22 29 29 20 25 19 14 20 19 15 19 23 25 29 29 31 31 29 27 25 28 30 32 34 34 33 29 28 27 29 30 32 43 42 47 57 49 47 48 45 55 60 54 50 52 56 54 52 52 52 49 47 47 45 44 41 39 42 47 51 54 54 55 57 58 54 51 47 41 35 29 27 27 24 24 26
55 48 47 47 31 28 47 67 68 74 94 93 86 78 47 17 7 6 11 33 38 22 33 35 19 20 20 19 30 31 20 19 24 27 29 30 32 34 32 29 26 27 30 33 35 35 34 31 29 27 28 30 31 35 36 38 44 45 47 48 39 33 42 54 54 52 56 56 52 53 51 47 45 42 38 36 34 34 36 42 50 55 55 56 58 55 49 45 41 37 32 26 23 22 23 25 26
57 52 48 44 34 35 53 71 69 70 84 84 71 49 26 15 10 8 14 22 20 17 31 35 21 17 23 26 32 33 25 24 28 27 28 31 34 35 34 30 27 26 30 33 34 33 33 32 29 28 29 29 30 31 32 33 34 36 36 36 33 29 31 44 57 51 47 50 47 50 48 39 36 32 27 24 25 31 36 40 48 54 55 55 52 43 35 33 28 25 23 20 20 22 23 22 17
55 52 46 39 37 40 48 66 74 72 73 67 52 36 29 21 7 10 17 13 10 16 29 31 17 17 26 29 29 26 25 30 29 23 25 31 34 35 34 30 28 26 29 32 31 30 28 28 28 29 30 29 30 29 30 31 31 31 29 26 25 29 26 32 60 61 47 45 41 43 40 27 24 23 21 20 22 30 34 36 39 43 45 42 35 26 22 21 18 16 18 18 20 20 17 12 8
52 53 47 38 39 42 46 59 71 71 65 55 46 43 43 26 5 7 11 9 12 17 31 32 13 16 28 27 29 27 28 34 30 23 24 29 33 34 34 30 28 27 29 31 29 26 22 23 27 30 32 31 30 27 28 31 33 31 27 26 21 21 19 19 41 53 57 57 44 39 33 23 22 21 21 21 25 30 31 31 30 30 29 24 18 14 13 13 13 13 15 16 15 12 8 5 4
53 52 44 34 32 32 39 56 68 71 70 69 66 59 50 33 14 7 6 7 14 17 27 33 17 16 24 20 25 29 36 39 31 26 23 25 31 33 33 29 28 29 30 33 32 26 21 21 26 32 35 34 31 26 25 29 34 33 26 25 22 19 18 17 21 28 44 51 42 38 32 26 25 22 22 24 28 30 30 30 28 24 16 11 10 9 9 9 10 11 11 10 8 6 4 3 3
56 57 41 31 30 25 28 47 65 75 79 79 81 75 54 41 26 8 6 6 10 19 22 28 21 14 19 16 17 25 39 40 32 34 30 26 30 31 33 28 26 29 31 34 35 30 22 20 26 33 37 35 31 25 22 25 29 31 27 24 21 18 17 17 19 20 27 31 29 30 28 27 25 23 24 25 27 29 30 30 24 15 8 7 7 6 7 6 7 7 6 6 4 4 3 3 4
41 53 44 33 32 28 29 42 62 78 81 79 81 79 59 50 40 12 5 5 9 24 24 27 24 12 16 16 13 18 31 36 31 38 35 25 27 30 32 28 24 25 30 34 35 31 22 20 27 34 38 35 30 24 19 21 25 27 25 22 19 16 15 15 18 21 23 24 23 22 22 24 23 22 24 24 26 27 27 23 14 7 5 5 5 4 5 4 5 5 4 4 3 3 4 4 5
19 42 52 43 38 36 34 36 58 77 83 86 82 81 70 59 55 26 4 5 17 33 31 32 25 11 15 17 14 16 22 27 25 30 28 21 24 28 31 29 24 22 25 32 34 31 20 16 25 35 38 34 27 23 19 19 21 24 23 20 17 13 12 12 15 21 23 24 22 20 21 21 21 22 23 24 25 24 19 12 6 4 4 4 4 4 3 3 3 3 3 3 4 4 5 7 7
5 29 51 54 56 55 44 33 53 73 80 93 87 81 81 70 66 45 10 3 21 39 41 36 26 16 17 17 18 21 20 17 16 21 19 18 23 25 29 31 27 23 21 28 34 34 24 15 20 31 36 33 26 20 16 16 17 19 20 18 16 12 10 10 13 19 22 24 23 22 22 21 23 23 23 25 23 18 10 5 4 3 4 4 4 4 4 5 4 4 5 4 5 6 7 9 10
0 23 53 61 61 61 53 40 48 64 73 93 95 86 87 79 74 59 25 4 10 29 43 42 33 26 21 17 22 25 20 12 9 16 18 18 21 22 26 30 31 28 22 24 29 33 32 23 17 21 30 33 27 20 14 14 15 16 17 16 14 12 10 8 10 15 20 24 25 24 24 23 24 24 25 24 19 11 5 4 4 3 4 5 5 6 8 11 8 6 7 8 7 8 9 10 11
-0 27 59 56 56 62 58 46 44 61 75 86 89 87 90 83 76 69 44 17 4 13 37 51 45 37 30 20 23 27 21 14 8 10 14 15 18 20 24 26 30 32 28 26 24 26 31 31 25 17 21 29 28 23 16 12 13 13 13 13 12 11 11 8 7 10 15 19 22 23 23 24 23 23 23 20 14 7 4 4 4 4 5 7 10 9 10 13 11 9 9 9 9 10 11 12 13
9 32 60 61 67 72 64 54 47 56 72 77 77 81 90 88 80 76 60 36 15 5 21 48 51 45 43 25 17 27 22 15 15 13 12 13 16 17 20 24 26 30 33 32 27 23 24 29 32 22 16 22 26 25 19 13 12 11 12 11 10 10 10 9 6 6 9 11 14 16 16 17 16 16 15 12 9 4 4 5 4 7 7 8 11 9 11 15 13 12 11 11 12 12 13 13 15
22 31 56 76 84 82 73 65 54 47 51 63 71 77 87 91 86 81 70 51 31 15 11 31 44 41 46 34 17 24 24 18 22 21 15 15 17 15 15 20 22 25 29 32 31 27 23 23 28 27 18 16 21 23 20 14 12 11 12 11 10 11 10 9 7 4 5 6 7 8 8 9 8 8 8 6 6 4 5 5 5 9 10 12 13 11 14 16 15 14 13 13 13 13 14 14 15
40 46 59 78 85 85 80 69 60 50 42 53 66 74 82 86 89 86 79 64 42 29 15 20 41 44 46 43 31 32 34 31 30 22 17 15 13 12 12 15 17 20 22 25 28 27 26 23 22 24 20 15 16 21 20 15 11 11 11 11 10 11 10 9 8 6 5 4 5 6 5 5 6 5 5 5 5 5 6 6 7 10 14 19 19 16 17 15 14 14 13 14 13 13 14 14 15
42 61 66 68 72 79 81 71 65 57 50 58 65 69 73 77 87 89 86 79 53 41 33 20 27 41 45 44 45 50 43 39 36 19 14 15 10 8 10 11 12 14 17 19 21 23 24 22 21 21 18 15 13 16 20 15 10 10 10 12 12 11 11 9 8 7 6 5 4 4 5 5 5 5 5 5 5 7 8 8 9 10 16 23 20 18 17 13 12 13 13 13 12 13 14 13 14
29 59 67 58 61 75 82 75 69 61 53 59 63 65 71 76 88 92 88 90 70 53 53 33 15 28 43 42 46 53 44 42 43 24 14 15 10 9 8 9 10 8 12 14 15 18 19 19 20 18 16 14 11 11 16 15 10 9 9 10 12 12 11 10 10 9 7 7 6 5 5 5 6 6 6 6 6 7 8 10 12 12 14 17 16 14 13 12 12 12 15 16 13 12 13 14 14
30 54 67 64 65 72 76 78 78 67 54 65 75 70 72 77 87 96 93 97 89 64 57 45 22 18 29 41 48 47 46 47 43 27 18 15 10 12 10 7 10 8 7 10 11 12 15 17 17 16 13 10 8 8 10 12 10 9 10 10 12 12 12 12 11 10 9 9 8 7 7 6 6 6 6 7 7 7 9 12 15 15 13 13 14 15 14 15 14 13 17 17 14 12 12 14 14
25 39 68 77 75 77 73 75 83 76 68 83 94 82 78 80 82 93 95 98 96 76 64 51 29 17 17 32 44 43 45 42 31 21 20 19 12 12 13 9 9 8 7 7 7 9 11 14 15 13 12 7 6 6 6 9 8 9 11 10 11 12 11 13 12 11 10 9 10 9 8 7 7 7 7 6 6 7 9 12 15 16 16 15 17 18 17 18 15 16 19 17 17 17 13 13 14
7 31 79 83 73 82 75 68 77 79 75 76 82 84 89 91 85 91 96 96 94 83 74 62 41 26 18 22 32 36 38 30 20 17 18 20 12 10 15 12 9 8 8 8 6 7 8 11 14 13 10 7 5 5 5 6 6 7 8 8 11 11 9 10 12 12 11 10 9 9 9 9 8 8 7 7 6 6 8 11 14 15 16 16 18 19 18 17 16 17 18 17 19 19 16 15 14
9 26 69 88 88 86 69 65 78 84 80 67 66 79 86 89 90 93 95 92 95 89 78 68 55 39 25 24 28 31 31 22 20 25 23 17 9 8 12 12 13 10 7 8 7 6 7 9 14 13 10 8 6 5 5 4 5 6 5 7 10 12 11 8 9 12 11 11 10 8 10 9 8 9 8 8 8 7 8 10 12 15 16 15 17 20 16 14 14 14 16 17 17 18 17 17 16
54 53 60 86 89 69 54 64 81 89 89 72 63 76 81 84 87 90 94 92 94 95 88 77 66 56 45 36 30 29 30 23 24 38 39 26 10 5 8 10 13 13 9 9 7 7 7 7 11 13 11 9 6 5 5 5 6 5 5 6 6 9 10 5 15 21 12 13 15 9 9 9 9 9 9 9 8 8 9 10 12 15 15 13 15 16 14 18 19 12 13 15 16 18 17 17 19
85 84 75 85 61 38 42 55 72 85 86 68 59 74 82 86 87 84 88 93 92 91 94 90 80 75 67 50 36 32 31 28 31 42 45 39 25 9 7 8 9 13 12 10 9 8 7 6 8 10 10 9 7 6 6 6 6 5 5 5 4 6 5 5 25 33 15 12 15 9 9 10 8 9 9 9 9 9 10 10 11 12 12 12 14 15 14 22 23 13 11 13 13 15 14 15 18
84 88 83 85 46 22 33 40 59 75 72 63 59 68 79 86 91 87 82 86 89 86 88 91 90 90 80 62 48 37 32 33 41 47 49 56 49 22 9 8 6 10 12 11 11 8 8 8 6 8 7 7 7 7 7 6 6 5 5 5 4 5 5 4 15 19 9 8 10 9 11 9 8 9 9 9 9 9 10 11 11 11 11 11 14 17 14 15 16 12 12 13 12 13 13 14 15
68 83 69 58 26 10 19 26 49 64 61 61 60 62 74 82 86 87 84 82 82 82 81 84 90 94 87 73 59 45 38 37 42 49 52 61 59 32 13 9 5 7 8 10 13 10 9 8 7 7 7 6 7 6 7 7 7 6 5 6 6 5 6 5 5 7 6 7 9 10 10 10 12 10 8 9 9 9 10 10 11 11 11 11 12 14 12 11 11 12 14 13 13 14 12 14 14
57 77 61 45 20 3 9 17 33 43 43 53 59 58 66 75 78 80 83 83 79 78 78 78 81 86 89 84 71 56 47 42 44 51 52 56 56 35 15 10 7 6 6 7 11 12 11 9 8 8 6 7 7 6 7 7 7 8 6 6 8 9 8 6 6 6 6 7 7 8 8 10 14 12 9 8 8 8 10 9 10 11 11 11 11 12 11 10 10 10 13 14 12 14 14 13 16
49 56 51 55 33 6 9 18 21 22 25 43 61 65 62 67 74 73 74 76 72 73 76 76 76 79 84 89 86 76 64 53 47 48 50 53 51 35 16 10 8 6 5 6 7 10 11 10 9 8 8 8 7 7 7 7 8 8 7 7 7 10 12 10 8 6 7 8 7 8 9 8 10 10 8 11 13 10 8 8 8 8 10 10 10 11 12 13 16 11 8 12 13 14 15 13 15
29 27 35 63 63 43 37 32 22 16 24 44 64 70 64 63 70 74 75 73 70 71 76 76 74 76 78 79 84 87 85 78 62 48 45 47 43 32 21 16 11 7 7 7 7 8 10 10 10 9 9 8 7 8 7 7 8 7 7 8 7 9 12 14 14 11 9 8 8 10 11 9 10 8 9 21 26 16 9 8 8 8 9 10 12 13 12 15 20 18 10 10 12 13 16 16 14
15 13 20 53 77 77 66 52 35 22 28 51 69 70 63 62 66 71 75 76 76 75 79 82 77 75 77 76 77 81 83 90 86 64 48 45 40 33 30 25 14 9 8 7 7 8 7 8 9 10 10 9 8 8 8 8 8 8 8 8 8 10 9 11 16 17 14 11 10 10 10 12 13 9 9 17 18 11 9 9 7 10 10 11 14 13 12 12 14 20 19 12 13 17 17 17 15
11 9 22 54 84 87 76 71 59 41 41 61 74 69 62 62 61 67 80 82 80 78 81 87 81 73 76 77 79 79 76 84 93 79 55 47 46 40 37 31 20 13 9 6 7 8 8 8 7 8 9 10 10 8 9 9 9 9 9 8 9 9 10 11 12 18 20 17 13 11 13 16 22 27 21 14 13 11 12 12 9 11 13 13 14 11 13 15 11 15 18 14 17 23 19 17 17
18 5 17 49 81 87 78 82 80 68 64 68 70 64 60 61 60 67 81 82 78 77 75 76 75 71 71 72 75 78 76 77 85 84 68 55 52 49 43 36 29 23 16 10 8 6 7 8 6 7 7 8 10 9 9 10 9 10 9 9 10 9 11 11 12 20 24 22 17 19 24 22 26 41 35 19 19 18 14 17 15 14 15 16 15 13 14 18 15 11 13 13 14 21 22 21 21
46 17 7 24 57 81 82 81 81 79 79 71 56 49 49 49 52 59 65 66 70 73 71 68 68 69 68 68 70 71 71 71 75 83 83 71 58 53 52 45 37 35 29 21 13 9 8 7 6 7 6 6 8 8 9 10 10 10 10 9 9 10 10 10 16 26 27 24 21 22 31 29 23 33 35 25 21 17 14 16 14 16 20 19 17 17 14 15 17 15 16 16 13 22 31 29 26
63 40 20 17 33 60 72 76 78 77 81 73 51 45 50 48 49 55 57 61 67 69 71 68 62 62 66 64 62 65 67 67 68 77 88 89 75 61 57 51 44 45 43 32 21 14 10 8 7 6 6 6 6 7 8 9 10 10 9 10 9 10 11 8 14 22 22 22 23 24 27 25 20 20 26 30 24 15 16 15 11 15 20 21 23 23 19 16 18 19 19 20 18 23 33 34 27
48 58 56 40 32 38 37 47 70 81 79 74 57 47 55 61 61 61 60 64 67 62 63 65 55 53 63 66 61 63 65 62 63 70 80 91 93 83 70 58 52 52 50 41 30 21 14 11 9 7 6 6 5 7 7 6 9 8 7 9 8 9 12 10 10 14 15 15 22 35 33 27 32 31 23 26 23 17 17 14 12 16 17 21 23 22 20 18 20 21 22 25 27 24 23 25 25
21 46 60 50 44 50 41 25 41 71 81 78 69 56 54 59 61 61 59 59 62 58 51 52 53 53 61 66 64 63 66 63 60 66 77 88 96 98 89 74 66 59 54 49 40 30 23 16 11 9 11 11 7 7 7 6 7 6 6 7 7 8 10 11 12 11 14 14 16 35 45 39 47 50 32 23 22 21 19 13 11 12 14 21 25 23 23 23 23 24 24 27 30 31 25 20 20
12 19 40 52 50 57 64 41 22 39 66 78 75 67 64 59 56 62 64 55 53 54 45 39 48 61 66 65 65 66 67 64 60 61 76 89 94 99 98 91 83 75 67 60 51 48 43 33 31 28 20 14 10 7 7 7 7 6 6 6 5 7 8 9 13 10 13 16 12 24 38 35 40 47 39 32 28 21 16 18 17 11 16 31 34 28 27 25 25 26 28 28 29 34 35 27 19
38 16 22 51 65 61 60 53 30 20 38 67 78 74 71 67 64 65 64 59 55 54 49 38 37 55 71 71 68 71 70 68 68 67 71 83 92 98 99 99 97 90 85 76 66 62 53 42 46 43 24 16 15 12 8 7 6 6 6 6 5 6 6 7 10 10 11 13 12 18 26 32 41 44 39 45 51 34 16 20 25 21 24 32 28 25 25 23 25 28 29 30 30 31 31 26 20
Wind_Speed
10 11 10 10 9 7 6 7 10 11 10 11 10 11 11 10 9 9 11 11 14 13 11 10 9 10 10 10 9 10 10 10 10 10 12 12 13 13 13 13 12 11 11 11 11 10 10 10 10 11 11 10 10 10 10 10 10 10 9 9 10 9 9 9 9 9 10 10 9 9 8 7 6 5 5 6 5 5 5 5 5 5 6 7 7 7 8 8 8 8 8 9 9 9 8 8 8
10 10 9 9 9 7 6 6 9 11 10 11 10 11 11 10 9 9 10 10 13 13 12 11 10 11 11 11 10 12 11 10 11 11 12 13 13 13 13 13 12 12 11 11 11 11 11 10 11 11 12 11 11 11 11 11 10 10 9 9 10 10 9 9 9 9 9 8 8 8 7 6 6 5 5 6 6 5 6 6 5 5 6 6 7 7 8 8 9 9 8 9 8 7 8 8 7
9 10 9 10 9 7 6 7 9 11 9 10 10 10 10 10 9 9 10 10 11 13 12 11 10 11 12 11 10 11 11 11 12 12 12 13 14 13 14 14 13 12 11 12 12 12 12 12 12 12 13 12 12 12 11 10 10 9 8 9 9 9 8 8 8 8 8 7 6 6 5 5 4 4 4 5 6 6 6 6 6 5 5 6 7 7 8 8 9 10 9 9 8 7 7 8 8
8 9 9 11 11 8 6 5 8 10 10 9 9 10 9 9 8 9 10 9 11 12 12 11 11 12 12 12 10 10 11 10 11 13 12 12 14 14 14 14 13 12 11 12 12 13 13 13 13 13 13 13 12 11 10 9 8 8 7 8 9 8 7 6 7 7 6 5 5 4 4 4 3 3 4 4 5 5 5 5 5 5 6 7 8 8 8 8 9 10 9 8 8 8 7 8 9
7 8 9 11 11 9 7 5 8 10 9 9 9 9 9 9 8 8 10 9 11 11 11 12 12 13 13 12 11 10 10 10 10 13 13 12 14 15 14 14 14 12 12 12 13 13 13 14 14 13 13 12 11 10 9 8 7 7 7 7 8 7 5 5 6 6 5 5 4 4 3 3 3 4 5 4 4 5 5 5 5 6 7 8 9 9 9 9 9 9 9 9 8 8 8 9 9
6 6 7 8 9 10 9 6 9 8 8 9 9 8 8 8 8 8 9 10 11 11 11 12 13 13 13 12 11 10 9 9 9 11 13 13 13 14 15 14 13 12 12 12 12 12 12 13 13 12 11 11 10 10 9 8 6 6 7 7 7 6 5 5 5 5 5 4 4 3 3 4 5 6 5 5 5 6 5 5 6 6 7 8 9 10 10 10 10 10 9 9 8 8 9 10 10
5 4 5 5 7 9 8 7 8 6 8 8 8 8 8 8 8 8 9 10 11 11 11 12 13 14 13 13 11 10 9 9 9 10 12 12 12 13 14 14 13 12 11 11 11 11 11 12 11 11 11 10 10 10 8 7 6 6 7 7 7 5 5 5 5 5 4 3 3 3 3 4 4 5 5 5 6 6 6 6 7 7 7 8 9 10 11 11 11 10 9 9 9 9 10 11 11
3 3 3 4 7 7 9 9 8 5 6 7 7 8 8 7 8 8 8 9 10 11 11 12 13 13 14 13 12 11 10 9 9 10 11 11 11 12 13 13 12 12 12 11 10 10 10 11 10 10 10 10 9 9 8 7 6 7 7 8 8 6 5 4 5 6 5 4 4 4 4 3 3 3 4 5 5 4 5 6 7 8 8 9 10 11 12 12 12 11 10 9 9 10 11 12 12
1 2 3 5 7 6 9 9 7 4 4 5 7 8 8 7 7 7 8 9 10 11 11 12 12 13 14 14 12 11 11 10 9 10 11 11 11 12 12 12 12 12 11 11 10 9 10 10 10 10 10 9 9 9 8 7 7 7 8 9 8 6 5 4 4 5 6 5 5 5 5 5 5 5 5 4 4 4 4 5 6 8 9 10 11 12 13 13 13 12 11 9 10 11 13 13 13
2 3 3 4 5 6 8 7 6 5 3 4 6 7 7 6 6 7 7 8 9 11 12 12 13 13 14 14 13 12 11 10 10 10 11 11 11 12 12 12 11 11 10 10 9 9 10 10 9 9 10 9 9 8 8 8 8 8 9 9 9 8 7 6 5 6 7 6 6 6 5 4 5 5 4 4 3 3 4 4 5 8 10 10 11 12 13 13 13 13 12 10 10 12 14 14 13
2 3 4 4 5 7 7 6 6 4 2 4 5 7 7 5 5 6 7 7 8 11 12 13 14 14 14 14 13 12 11 10 10 11 11 11 12 12 13 12 11 11 10 9 9 10 10 10 10 9 9 9 9 8 9 9 9 9 9 10 12 12 10 7 6 7 7 6 6 6 4 3 4 4 5 4 3 4 5 5 6 8 10 10 11 12 13 13 13 14 14 12 11 13 14 13 12
3 3 4 5 6 5 6 5 3 2 0 4 4 6 6 5 5 6 7 7 8 10 12 13 14 14 14 14 14 12 11 10 10 11 12 12 12 13 13 13 12 11 10 9 9 9 9 10 10 10 9 10 10 10 10 10 10 9 10 12 13 13 10 7 7 6 6 6 6 5 3 3 3 4 5 4 4 5 5 5 7 8 10 11 11 12 12 13 14 14 15 14 13 14 14 13 12
4 4 4 4 4 4 5 4 1 3 1 3 2 4 5 5 5 5 7 8 8 9 11 13 13 14 14 14 14 13 11 10 10 11 12 12 12 13 13 13 13 12 10 9 9 9 9 10 11 11 11 11 12 10 10 10 9 9 10 12 13 12 9 8 7 7 6 6 5 4 4 3 3 4 4 5 6 7 7 7 9 10 11 12 12 13 13 13 14 14 14 15 15 15 14 13 13
5 5 5 4 5 5 7 6 4 5 3 4 1 3 4 6 6 6 7 8 8 9 11 12 13 15 15 15 14 13 11 10 11 11 12 12 12 13 14 14 13 13 11 9 9 9 10 11 12 12 11 12 12 11 10 9 7 7 9 10 12 10 8 8 8 8 7 6 5 5 4 4 3 4 5 6 7 8 9 9 10 10 11 12 13 14 13 13 13 13 14 15 15 14 14 14 14
6 7 6 6 6 7 8 8 4 4 5 6 4 4 5 6 7 7 8 9 9 9 11 12 12 14 15 16 15 14 12 11 10 11 12 12 13 13 14 14 14 13 12 10 10 9 9 11 12 11 9 10 10 10 11 9 6 7 8 9 10 9 8 8 9 8 8 7 6 5 5 5 5 5 6 8 8 8 10 11 10 11 12 13 14 14 13 13 14 14 14 15 14 14 15 15 14
7 8 8 7 9 9 8 9 6 6 8 9 9 8 6 7 8 9 9 9 10 10 10 12 11 12 13 14 16 15 13 12 11 11 12 12 13 13 14 14 14 13 12 11 10 9 10 12 12 10 8 8 8 9 10 8 6 7 8 8 8 8 8 9 10 9 8 7 6 7 6 6 7 7 8 9 9 9 11 12 12 13 14 15 15 14 13 14 15 15 15 15 15 14 15 15 13
8 8 9 9 10 10 8 9 10 8 11 12 12 11 9 9 10 10 11 10 11 11 10 10 10 10 12 13 15 15 14 13 11 11 12 12 12 13 13 14 13 12 12 11 11 9 9 12 13 11 9 8 7 8 9 8 8 7 8 8 8 8 9 10 10 8 8 8 8 9 8 8 8 8 9 11 10 9 10 12 13 13 15 16 16 15 14 15 15 15 15 16 15 15 15 14 13
8 8 9 10 10 9 8 9 11 10 12 14 15 15 13 13 12 12 12 11 11 12 11 10 10 11 12 13 14 15 14 13 12 11 12 12 12 12 12 13 13 12 11 11 11 10 9 10 12 11 9 8 8 9 7 7 9 9 9 9 8 9 10 10 9 8 8 9 10 10 11 10 10 10 11 13 12 12 12 13 14 14 14 15 15 15 14 14 15 15 16 16 16 15 15 13 12
9 8 10 11 9 8 7 9 11 13 15 16 18 17 16 16 15 14 14 13 12 12 12 12 11 12 13 14 14 14 14 14 13 12 12 12 12 12 12 12 12 12 12 11 10 10 9 9 10 10 10 9 8 9 8 7 8 9 9 9 9 9 10 10 9 9 9 9 10 12 13 12 11 12 13 15 14 14 14 15 15 14 14 14 14 15 14 14 14 15 17 16 15 15 14 14 12
9 9 10 10 9 8 8 10 11 13 15 16 18 18 18 18 17 16 15 15 14 13 13 13 12 13 14 15 14 14 14 14 14 12 12 12 12 12 12 12 13 13 13 11 10 9 9 9 9 9 10 10 9 8 8 8 7 7 8 9 10 10 10 10 10 9 10 11 11 12 14 13 13 12 14 15 15 16 16 16 16 15 14 14 13 14 14 14 14 15 16 16 15 14 14 14 14
10 10 10 10 8 7 8 9 8 10 12 14 19 21 20 18 17 16 15 15 14 13 13 14 14 15 15 15 15 15 14 14 14 14 13 12 12 12 12 12 13 14 14 13 11 10 9 9 9 9 9 11 11 9 8 9 8 6 7 8 10 11 12 10 9 10 12 13 12 12 14 14 14 13 13 15 16 16 17 17 16 15 15 14 14 14 14 15 15 15 15 15 14 15 15 15 16
11 10 10 9 7 5 4 6 8 7 10 18 21 22 20 17 16 16 15 14 14 14 13 14 14 15 16 16 16 16 15 15 15 14 14 13 12 12 12 12 13 14 14 13 12 10 9 9 9 9 10 11 12 11 9 9 9 7 7 8 9 11 12 11 9 10 12 13 13 12 13 14 14 14 14 15 15 15 16 17 16 15 15 15 15 15 16 17 17 16 15 15 16 16 17 17 17
12 11 11 8 6 3 2 3 8 7 12 21 19 19 17 15 15 15 15 13 14 14 14 15 15 15 16 17 17 16 15 15 15 15 14 13 12 11 11 11 12 13 14 14 12 11 9 9 9 10 11 12 12 12 10 9 9 8 7 7 8 9 12 12 11 10 11 12 13 12 13 14 14 15 15 15 15 15 16 16 15 15 15 15 16 17 18 18 17 17 17 17 18 18 19 19 19
14 12 11 8 4 2 1 1 5 8 15 20 16 16 16 14 14 13 13 13 14 14 14 15 15 15 16 17 17 16 15 15 14 14 14 14 12 11 10 10 11 12 13 13 12 11 10 9 9 10 11 12 13 13 12 11 10 9 8 8 8 9 10 12 12 11 11 13 14 14 14 15 15 15 15 15 15 15 15 15 15 15 16 17 17 18 18 17 18 18 19 19 19 20 20 21 21
16 14 12 10 6 5 4 1 2 6 15 17 13 15 15 14 14 14 14 14 14 14 14 15 15 15 15 15 16 16 16 15 15 15 14 14 13 12 10 10 11 11 12 13 13 12 11 10 10 10 12 13 13 13 13 12 11 10 10 10 9 10 10 11 12 13 12 14 16 15 13 14 16 15 15 15 15 15 15 15 16 17 18 18 18 18 19 19 20 20 21 21 21 21 22 22 22
16 15 13 12 9 7 6 4 4 8 13 14 14 14 14 15 15 16 16 16 16 14 15 15 14 14 14 15 16 16 16 16 16 15 15 14 14 13 11 10 10 11 12 12 13 13 12 11 10 11 12 13 13 13 13 12 12 11 10 11 11 11 11 11 11 13 13 13 16 16 14 14 15 15 15 14 14 15 15 15 16 17 18 19 19 20 21 21 21 22 22 22 22 23 23 23 23
16 15 16 15 12 9 7 7 7 10 11 13 15 13 12 14 15 17 17 18 17 15 15 16 15 14 14 15 16 17 16 16 16 15 15 15 14 13 12 11 10 11 11 12 12 12 12 12 11 11 11 12 13 13 13 13 12 11 11 11 11 11 12 11 11 12 13 13 14 16 15 14 14 14 14 14 14 15 15 16 16 17 19 20 21 21 22 21 22 22 22 23 23 23 23 23 22
16 14 17 17 15 12 11 11 10 10 10 12 15 11 10 12 14 18 19 18 18 16 16 16 15 15 14 14 14 15 15 15 16 15 15 15 14 14 12 12 11 11 11 11 11 11 12 12 12 12 11 12 12 13 13 13 12 12 12 11 11 12 12 11 11 12 13 13 14 15 15 14 13 13 13 13 14 14 16 17 18 18 19 20 21 21 21 21 21 22 22 22 22 22 22 21 20
16 15 17 17 17 16 14 14 13 12 12 13 16 13 11 11 13 16 19 18 18 18 17 17 16 15 14 14 14 14 14 15 15 14 15 15 14 14 13 12 12 11 11 10 11 11 11 12 13 12 12 12 12 12 12 12 12 12 12 12 12 12 12 12 12 12 12 13 14 15 15 14 14 13 13 13 14 15 17 18 19 19 20 20 21 21 21 20 20 21 21 22 21 21 20 20 19
17 16 17 17 18 18 17 17 15 14 14 15 17 17 14 13 12 14 17 18 18 18 17 18 17 16 15 14 13 14 13 14 14 13 14 14 14 14 13 13 13 12 11 11 11 11 11 11 12 12 12 12 11 12 12 12 12 12 12 13 13 13 13 13 13 13 13 13 13 14 15 14 14 14 13 13 14 16 18 19 19 20 20 21 21 21 20 20 20 19 20 20 20 19 18 18 17
17 17 15 15 17 18 19 19 18 17 17 16 17 17 15 14 14 14 16 18 18 18 18 18 17 16 16 15 14 13 13 14 14 14 14 14 14 14 13 13 13 13 12 12 11 11 11 11 11 11 11 11 11 11 11 12 12 12 12 12 13 13 13 13 14 14 13 13 13 14 14 14 14 14 14 14 15 17 19 19 19 20 20 20 21 20 20 20 19 19 18 18 18 18 17 16 16
16 16 15 15 17 17 19 20 19 18 18 18 19 19 17 17 16 15 16 18 19 18 18 18 18 18 17 16 15 13 13 14 14 14 14 14 14 13 13 13 13 13 13 12 12 11 10 10 10 10 10 10 10 10 10 11 11 11 12 12 13 13 13 13 14 14 14 14 13 13 14 14 14 14 14 15 16 17 18 19 19 19 19 20 20 19 18 18 18 17 16 16 15 15 15 15 14
14 16 16 17 17 18 19 21 21 20 20 21 22 20 19 20 19 16 16 18 19 19 19 18 18 19 18 16 16 14 13 14 14 14 14 14 14 13 13 13 13 13 13 13 12 11 10 9 9 9 9 9 9 9 9 10 10 11 11 12 12 13 13 13 13 14 14 14 14 14 14 14 14 14 15 15 16 16 17 18 18 18 18 18 18 18 17 16 16 16 15 14 13 12 13 13 12
15 16 16 17 17 17 19 20 21 23 23 22 23 21 19 20 20 18 17 18 19 20 20 19 19 19 18 17 16 16 15 15 15 15 15 14 14 14 13 13 13 13 14 13 13 12 11 10 9 8 8 8 7 8 8 9 9 10 11 11 12 12 13 13 13 14 14 14 14 14 14 15 15 15 15 15 15 15 16 16 16 16 17 16 16 16 16 15 15 14 13 12 11 10 10 10 10
17 19 19 18 18 18 18 19 21 24 25 23 22 21 20 22 22 21 19 19 19 20 21 20 20 19 18 18 17 16 16 15 15 15 15 14 14 14 14 14 14 14 14 14 13 12 12 11 9 8 8 7 7 7 8 8 9 9 10 10 11 11 12 12 12 13 13 14 14 14 14 15 15 15 15 15 15 14 14 14 14 14 14 14 14 14 14 13 13 12 11 10 9 9 8 8 9
20 20 21 20 19 18 17 19 19 22 25 24 23 21 21 22 23 24 21 19 19 20 22 21 20 20 19 19 18 17 17 16 16 15 14 15 15 15 15 14 14 14 14 14 13 13 12 11 10 9 8 8 7 6 7 8 9 9 9 9 10 10 11 11 11 12 12 12 13 13 14 14 14 14 14 14 13 13 12 12 12 12 12 12 12 12 13 12 11 10 10 9 9 8 7 7 7
26 22 22 22 21 18 16 19 18 20 23 23 23 22 21 22 24 25 24 22 21 19 20 22 21 20 19 19 18 18 18 17 16 16 15 15 15 15 15 14 14 14 14 13 13 13 13 12 10 9 9 8 8 7 6 7 8 9 9 9 9 10 10 10 10 11 11 11 11 12 12 12 12 12 12 12 12 12 11 10 10 10 10 10 10 10 11 10 9 9 8 8 8 7 6 6 6
28 22 21 23 22 19 17 19 17 19 22 21 22 23 21 22 24 25 26 24 22 21 20 21 21 21 21 21 21 20 19 18 17 17 16 15 15 15 15 15 14 14 13 13 12 13 13 12 11 11 11 10 9 8 7 7 7 8 8 8 8 8 9 9 9 9 9 9 10 10 11 11 11 11 10 10 10 10 9 9 8 8 8 8 9 9 9 8 7 7 6 6 6 5 5 5 5
29 23 19 19 21 21 19 19 16 17 20 17 19 24 21 21 22 23 27 26 25 25 24 22 23 23 23 22 22 21 20 19 18 18 16 15 15 15 15 15 14 14 13 12 12 12 13 13 13 12 12 12 11 9 8 7 6 7 8 8 8 8 8 8 8 8 8 8 8 8 9 9 9 9 9 9 8 8 8 7 7 7 6 7 7 7 7 7 6 5 5 5 5 4 4 4 4
30 26 15 12 19 21 20 21 17 16 19 15 13 19 18 18 20 20 25 28 28 29 27 24 23 23 24 23 22 21 20 20 19 18 18 16 16 15 15 15 15 14 13 13 12 12 13 13 13 13 13 13 12 10 9 8 6 6 6 7 7 7 7 7 7 7 6 7 7 7 7 8 8 8 8 8 8 8 7 6 6 6 6 5 6 6 6 6 6 4 4 3 3 3 4 3 3
29 26 15 12 20 22 23 23 19 16 19 18 14 15 14 14 17 20 24 27 29 30 28 24 22 22 23 24 23 22 21 21 20 19 19 18 17 16 16 15 15 15 14 13 13 12 13 13 14 14 14 13 13 11 9 8 7 6 5 5 5 6 6 6 6 6 5 5 6 6 6 6 7 7 7 8 8 7 7 6 6 5 5 4 4 5 6 5 5 5 4 3 3 2 3 3 3
25 24 20 18 17 22 27 24 18 16 17 20 19 17 15 13 15 17 21 25 27 28 28 26 25 24 23 22 22 22 22 22 21 21 20 19 18 17 16 16 15 15 15 14 13 12 12 14 14 14 14 14 13 12 10 8 7 7 6 5 5 5 5 5 5 5 5 5 5 5 5 5 5 6 6 7 7 7 6 6 5 5 5 4 3 3 3 4 4 4 4 3 3 2 2 3 3
18 18 21 22 22 25 29 26 20 17 18 21 22 20 19 16 15 16 17 21 24 26 27 27 27 25 23 21 20 21 22 23 22 22 21 20 20 19 17 17 16 16 15 15 14 13 13 14 15 15 14 14 13 12 10 9 9 8 8 6 6 5 5 4 5 6 5 4 4 4 4 4 4 4 4 5 5 5 5 5 5 4 4 3 3 3 2 3 4 3 3 3 3 2 2 2 3
17 18 19 21 27 29 28 28 24 21 22 23 23 23 21 16 15 18 19 19 21 23 24 25 25 26 24 22 21 21 21 23 23 22 22 21 21 21 19 18 18 17 16 15 15 15 14 14 15 15 14 13 13 11 10 10 10 9 9 7 6 5 5 4 5 5 4 3 4 3 3 4 3 3 3 4 4 4 4 4 4 4 4 4 4 4 3 3 3 3 3 3 3 3 3 3 3
19 25 25 21 28 30 27 31 28 25 25 22 21 23 22 19 16 17 21 20 18 19 20 19 21 25 26 24 22 22 22 23 23 23 23 22 22 21 21 20 19 18 17 17 16 16 16 15 15 15 15 13 13 12 11 10 10 10 9 8 7 6 5 4 4 4 3 4 3 3 3 3 3 3 3 3 3 3 4 4 4 4 4 4 4 3 3 4 4 4 5 4 4 4 4 4 4
22 29 33 27 30 32 30 33 31 28 26 22 21 21 22 24 20 17 19 19 19 18 17 17 19 23 27 27 24 22 23 23 23 23 24 23 23 23 23 21 20 20 19 18 17 17 17 17 16 16 15 14 13 12 11 10 10 10 10 9 7 7 6 6 5 5 4 4 4 3 3 3 3 2 3 3 3 3 3 3 4 4 4 3 2 2 2 4 4 5 5 5 5 5 5 5 5
28 28 30 29 30 32 30 31 32 31 29 25 22 21 22 25 24 20 17 17 20 20 19 18 16 18 23 26 26 24 23 23 23 23 24 24 24 25 24 24 22 21 20 19 18 18 18 19 18 17 15 14 13 12 11 11 11 11 10 9 8 7 7 6 6 5 5 5 4 4 4 4 4 4 3 3 3 2 2 2 3 3 3 3 2 2 2 3 4 4 5 5 6 6 5 5 5
34 28 25 24 26 29 28 28 31 33 31 28 24 22 23 24 25 23 19 18 19 20 21 19 15 16 19 20 22 23 23 24 24 24 24 23 24 24 25 25 24 23 21 20 19 19 20 20 20 19 17 16 15 13 12 12 12 11 10 9 8 8 7 7 7 6 6 5 5 5 5 6 6 6 5 5 4 4 3 3 2 2 2 2 1 1 2 2 2 3 4 4 5 5 5 5 5
37 29 25 21 18 22 25 25 29 31 30 29 26 23 24 24 24 23 20 19 20 21 20 20 18 17 18 18 18 19 21 23 25 25 24 24 23 23 24 24 24 24 22 21 21 21 21 21 21 20 19 18 16 15 14 13 13 12 12 11 10 9 8 7 7 7 6 5 5 5 5 6 6 7 7 6 6 5 5 4 4 3 2 2 2 2 2 2 2 2 3 4 4 4 4 5 5
35 30 28 22 16 18 21 21 24 27 28 29 27 25 26 25 24 23 21 18 20 23 19 17 18 17 16 17 16 17 18 20 26 28 26 24 23 22 22 22 22 23 23 23 23 23 22 22 22 21 20 19 18 17 17 15 15 15 14 12 11 10 9 8 7 7 7 6 5 5 5 5 6 6 7 7 7 7 6 6 5 4 4 3 3 3 3 3 3 3 3 3 4 4 4 4 5
34 32 29 24 17 16 17 17 18 22 24 26 28 28 27 26 24 24 22 16 17 23 18 13 15 16 16 15 15 16 16 17 24 30 28 26 25 23 21 21 22 23 23 25 25 24 24 24 23 22 21 21 20 19 19 18 17 17 16 14 13 12 10 9 9 9 8 7 6 6 6 5 5 6 6 6 7 7 6 6 5 5 5 4 5 5 4 4 4 4 3 4 4 4 4 4 5
30 34 32 28 21 16 15 16 16 18 20 23 28 31 29 27 25 24 22 17 15 20 18 14 14 15 15 15 14 14 15 15 18 26 30 29 27 25 23 21 22 23 23 24 24 25 25 25 25 24 23 22 22 21 20 19 19 19 19 17 15 13 12 12 11 11 9 8 6 6 6 6 5 5 5 5 6 6 6 5 5 5 5 5 5 5 5 5 5 4 4 4 5 5 5 5 5
22 32 37 34 27 18 15 17 17 18 20 22 27 30 29 29 28 26 25 22 19 20 19 18 17 16 15 16 15 13 15 16 16 20 26 32 32 28 25 24 23 23 23 22 23 24 25 26 27 26 25 24 23 22 21 20 20 21 20 19 16 15 14 14 12 11 11 9 8 7 7 7 6 6 6 6 5 5 5 5 4 4 4 4 5 5 5 5 5 5 5 5 5 5 6 7 6
18 23 29 33 32 25 20 17 17 19 20 21 25 27 27 28 28 26 26 25 23 22 22 21 21 20 16 15 16 14 15 17 17 18 21 28 33 30 27 26 24 23 23 22 22 23 24 25 26 27 27 26 25 24 22 21 21 21 21 20 18 17 16 15 14 13 12 11 9 8 8 8 6 6 6 6 6 6 6 5 4 4 4 4 4 4 4 5 5 5 5 5 5 4 6 8 7
26 18 18 28 32 29 30 28 21 18 19 19 22 25 25 26 27 26 25 25 24 23 24 24 23 24 19 15 16 16 16 17 18 18 18 22 28 29 28 26 25 24 23 22 22 22 23 23 24 26 26 27 27 25 24 23 22 23 23 21 20 18 17 17 16 15 14 12 10 9 9 8 7 7 7 7 7 7 6 6 5 4 4 4 5 5 5 5 6 6 6 5 5 5 7 8 7
37 28 20 25 28 24 29 34 27 18 16 17 18 21 24 26 28 28 26 26 25 23 25 25 24 24 21 17 16 17 16 16 17 18 18 19 22 23 24 25 25 24 23 23 22 22 22 22 23 24 25 26 26 25 25 25 25 25 24 23 21 19 18 17 17 16 15 13 11 11 11 10 9 9 9 9 9 8 7 7 6 5 5 5 5 6 6 6 6 6 6 6 6 6 6 7 7
38 37 26 22 26 24 24 31 33 27 18 14 17 19 22 26 28 27 24 25 25 23 26 27 24 21 20 19 17 17 16 16 17 19 18 18 21 23 23 24 24 24 24 23 21 21 21 21 21 22 23 23 23 24 25 26 26 26 25 24 22 21 19 18 18 17 16 15 13 13 13 12 11 11 11 11 10 10 9 8 7 7 6 6 7 7 7 7 7 6 5 6 7 6 6 7 7
28 36 33 24 23 24 24 24 29 33 28 17 14 19 24 26 26 24 23 24 25 24 24 27 27 21 17 18 18 17 16 15 15 17 17 17 19 23 24 24 25 25 25 24 23 22 22 22 22 23 23 22 21 22 23 24 26 26 26 25 24 22 20 19 18 18 18 17 16 16 15 14 14 13 13 13 12 12 11 10 9 8 8 8 8 8 8 8 7 6 6 6 7 7 7 7 7
Wind_Direction
45 45 47 52 58 78 110 124 118 110 106 112 100 87 81 75 76 81 85 92 96 96 96 98 103 107 105 109 112 112 117 121 119 112 108 106 109 114 113 111 110 114 116 116 119 123 127 127 124 119 114 112 110 110 111 110 109 111 114 114 113 114 115 118 121 124 126 126 127 129 133 137 145 151 146 145 146 151 155 154 162 166 159 153 150 147 142 143 144 151 152 143 139 134 128 125 126
46 49 53 55 60 73 114 131 112 108 103 106 104 87 79 80 79 81 82 87 98 101 101 102 104 105 103 104 105 109 115 116 116 114 111 109 108 109 108 107 108 112 115 116 120 123 123 120 115 110 108 107 105 104 104 105 107 109 109 108 106 105 108 113 119 123 122 122 125 130 135 145 155 155 156 154 153 162 165 156 165 174 160 154 154 148 141 142 143 145 144 137 135 131 126 123 123
52 55 56 53 53 61 106 142 133 122 105 96 94 84 81 88 89 87 83 86 99 104 105 106 107 104 101 101 103 107 112 115 115 113 110 111 110 109 107 108 109 111 115 120 123 123 121 117 112 108 106 104 103 104 106 110 111 111 110 108 104 101 106 114 121 123 121 121 125 133 143 154 160 164 167 164 164 168 169 161 166 172 158 159 161 152 143 142 142 140 138 136 135 131 127 124 123
60 55 53 50 44 45 74 126 138 117 99 93 86 80 84 91 93 90 86 90 99 104 108 110 109 106 102 101 102 104 108 113 115 114 110 110 111 110 109 110 110 110 115 119 122 121 119 115 111 107 105 106 108 110 113 114 113 114 111 107 104 105 115 126 125 121 124 133 143 151 161 171 166 175 184 182 174 166 174 171 167 169 165 167 167 158 149 147 143 139 139 140 139 135 130 126 125
62 53 48 47 41 39 45 88 122 113 104 98 82 76 78 83 90 94 93 95 99 104 110 111 109 106 104 102 102 101 104 110 113 112 110 109 110 111 111 111 110 111 116 119 119 118 116 112 108 108 109 112 113 112 112 111 112 115 110 104 104 113 131 138 129 129 146 162 170 180 195 202 190 196 199 196 185 173 183 182 177 178 176 174 168 162 157 153 145 141 142 142 142 138 130 126 125
62 56 47 46 44 40 35 82 114 114 112 98 85 81 73 78 91 98 101 101 102 106 111 111 109 107 105 102 102 103 104 110 111 108 109 110 109 111 112 112 112 115 117 117 114 112 110 106 105 109 111 112 111 109 110 111 112 113 113 110 112 125 138 136 133 140 159 174 184 199 220 227 215 215 212 201 199 196 196 193 190 185 180 179 171 167 164 156 148 144 144 144 142 135 128 124 126
59 53 47 45 50 45 31 78 107 104 109 101 90 84 71 79 94 98 103 106 106 109 113 112 110 108 106 103 102 104 105 107 106 105 107 108 108 110 112 113 114 115 113 109 106 104 102 102 104 106 105 103 104 107 113 119 122 125 122 118 120 129 128 127 126 124 136 159 176 190 204 216 211 210 205 197 203 208 208 204 201 193 182 182 178 171 166 159 152 148 145 146 141 133 129 128 130
45 38 31 22 39 40 25 60 95 90 103 111 97 83 70 80 94 97 103 107 109 112 114 113 111 110 109 107 106 106 106 105 105 107 108 107 106 107 109 111 111 110 106 103 101 101 100 100 100 100 98 98 101 107 116 125 129 128 121 117 122 125 118 112 104 108 126 138 146 156 154 149 144 145 160 176 190 198 202 202 202 195 184 184 182 174 168 161 158 152 147 146 140 134 132 131 133
0 4 8 18 32 30 31 61 95 86 94 111 98 81 69 79 95 99 104 110 113 115 117 115 114 113 111 109 108 109 109 109 111 114 114 110 108 106 106 106 107 105 103 105 107 107 104 102 101 101 101 103 108 114 120 124 125 121 117 120 125 122 105 91 90 107 123 122 119 118 108 101 104 115 134 153 170 170 171 186 191 187 182 183 181 175 169 165 161 152 146 146 140 136 134 132 132
298 322 341 17 30 28 38 57 79 70 74 102 101 87 73 77 96 105 108 113 121 122 122 120 118 115 112 111 110 111 113 115 118 120 118 115 113 110 108 107 106 106 107 110 111 110 106 105 107 106 107 111 118 123 126 123 120 119 121 123 119 108 98 99 104 107 112 110 106 104 101 103 113 120 129 144 161 152 151 166 169 172 173 173 175 171 167 165 158 150 145 142 140 137 134 132 131
279 299 314 349 15 25 23 29 56 51 55 110 108 98 86 84 101 115 117 119 129 127 125 123 120 118 114 112 111 112 114 117 120 120 119 119 119 117 114 111 110 109 110 110 112 112 112 113 112 110 111 114 118 122 124 118 111 113 117 114 106 100 101 107 105 101 105 104 96 98 104 107 113 122 126 135 141 129 134 146 149 160 161 159 164 162 160 159 154 150 140 135 141 137 131 129 128
268 281 304 331 356 3 345 1 48 356 243 132 110 112 106 99 112 123 126 128 133 130 127 125 123 120 116 114 113 113 116 119 121 121 121 123 122 121 118 115 113 111 111 114 115 115 116 115 113 114 116 114 111 114 118 113 109 115 115 107 101 103 111 118 111 100 95 90 90 94 95 86 97 115 124 130 128 119 124 136 143 147 146 148 154 153 152 154 153 147 134 137 146 135 128 127 126
262 272 291 308 329 323 311 322 326 321 254 153 109 128 120 111 130 136 137 134 136 136 133 132 128 123 118 115 114 115 118 122 123 122 122 123 123 121 119 117 115 114 115 115 112 112 113 111 111 112 115 115 110 110 109 105 113 122 116 108 106 112 122 124 113 100 89 88 95 100 104 106 111 119 124 130 128 123 125 131 136 133 131 136 142 145 148 150 148 138 132 143 142 130 127 127 127
255 264 274 281 299 295 290 298 305 326 279 189 162 162 139 135 152 154 148 140 141 144 139 138 134 127 123 119 117 117 121 125 125 123 122 123 123 121 119 119 117 116 117 112 106 108 111 110 109 111 117 118 113 112 105 101 112 115 109 109 110 115 122 117 106 98 93 96 99 97 105 119 130 137 136 134 130 130 131 130 131 123 117 124 129 136 143 143 139 135 139 140 131 127 129 128 128
248 257 266 271 281 277 281 289 277 297 270 215 225 217 171 160 165 163 156 147 147 150 146 140 137 134 129 126 123 123 126 128 128 124 122 121 121 120 120 120 118 117 118 113 107 109 111 108 106 110 118 116 114 112 107 108 112 106 104 107 109 115 115 105 100 99 97 99 103 99 101 119 132 140 138 132 131 134 132 127 123 115 111 116 120 126 135 137 138 143 142 132 125 127 128 127 127
247 255 264 266 270 265 270 278 269 279 266 236 231 221 192 178 173 169 163 157 153 152 152 144 143 140 134 132 129 127 129 129 130 126 122 120 119 119 119 119 118 118 118 115 113 114 112 111 112 117 121 117 117 111 107 111 111 105 104 102 102 106 101 93 91 89 90 96 100 97 98 118 130 132 128 124 127 131 129 125 119 118 119 120 121 125 132 137 140 140 133 125 126 128 127 126 125
251 257 264 265 266 269 281 288 287 284 268 247 223 206 200 192 181 174 169 166 157 153 157 152 147 141 137 139 134 131 133 132 131 128 122 119 119 118 117 117 118 118 118 116 117 118 115 115 119 124 125 120 115 108 111 119 116 107 99 95 92 88 85 84 82 75 79 92 96 96 101 117 125 126 122 118 123 128 128 123 118 119 123 124 125 127 129 131 132 131 127 126 129 130 129 127 124
253 257 265 271 275 285 301 295 286 278 267 249 220 207 203 195 185 177 172 169 161 158 163 157 149 145 144 142 135 133 135 133 131 129 124 121 119 117 116 117 118 118 118 118 120 121 119 116 119 121 120 120 116 108 108 115 113 107 96 93 90 85 85 85 82 76 80 89 95 100 104 111 116 119 117 116 121 125 123 119 117 119 120 120 121 121 122 124 126 129 130 129 131 131 130 126 122
256 259 265 275 281 290 298 287 283 278 265 243 221 209 197 190 184 178 173 170 167 166 166 157 151 153 149 140 135 134 134 133 131 131 126 122 120 117 118 119 120 121 121 121 122 122 119 115 117 120 122 127 128 118 106 95 100 106 103 101 99 94 92 90 83 77 78 84 92 101 104 104 105 109 110 113 118 117 116 117 118 117 115 116 118 118 120 124 128 130 132 133 134 133 128 122 120
256 261 265 275 283 290 295 289 286 280 265 239 218 199 186 187 184 179 174 173 172 169 168 159 152 154 149 141 137 137 136 134 132 132 129 124 121 119 120 122 124 125 124 124 123 121 117 116 116 120 124 123 119 113 102 93 92 98 99 101 103 99 91 81 78 79 82 91 98 102 104 103 101 102 103 108 113 114 116 119 119 115 111 114 118 119 121 126 130 133 136 138 135 129 124 120 121
253 260 266 276 287 300 304 300 302 285 255 218 201 188 183 188 184 178 176 175 173 169 168 162 155 155 150 144 143 141 141 138 135 135 132 128 125 123 123 125 127 128 127 126 124 121 118 119 119 119 119 112 107 104 99 98 98 90 84 87 90 97 96 85 83 86 90 100 104 102 103 103 102 101 100 103 106 110 113 117 117 113 112 114 117 119 121 126 131 135 139 136 128 122 121 121 122
249 257 265 276 292 308 313 319 345 319 222 185 182 181 180 185 180 177 177 175 171 168 168 163 159 158 154 149 148 147 146 143 139 137 135 131 128 126 127 128 130 130 129 128 125 122 120 120 120 119 115 111 108 107 105 99 95 86 80 81 80 90 96 92 88 88 93 101 100 100 101 102 103 103 104 103 103 105 109 112 112 110 114 117 118 119 122 126 131 135 136 131 124 121 121 122 124
242 246 255 268 287 300 324 345 20 40 158 161 166 173 173 178 179 179 181 179 172 167 166 163 162 163 161 155 153 153 150 147 142 139 136 133 131 129 129 130 131 131 130 130 127 123 122 123 122 120 118 115 112 110 109 104 100 96 87 82 81 84 89 90 85 83 92 98 97 100 102 102 103 103 105 104 104 107 108 110 107 107 117 122 121 121 122 127 131 133 131 127 123 123 123 124 125
237 240 249 258 266 254 277 352 45 83 143 155 160 167 168 173 176 177 182 184 174 168 167 164 164 168 169 160 156 155 152 149 144 141 138 135 135 134 133 131 131 132 132 130 128 126 125 126 124 123 120 117 116 115 115 115 116 114 108 100 87 79 81 85 83 81 88 96 100 102 102 103 106 106 105 104 104 106 107 109 108 108 116 121 120 120 122 126 129 128 126 123 122 123 124 126 126
234 237 244 248 241 216 219 226 89 127 155 163 167 167 166 170 173 172 178 182 175 172 168 165 166 170 173 165 158 158 154 151 148 145 143 141 141 139 136 134 133 133 133 132 129 127 128 128 126 124 121 118 117 117 119 120 122 119 115 107 92 81 75 75 83 89 91 97 103 104 103 106 110 109 108 106 103 104 104 106 107 108 112 117 117 117 120 123 122 121 121 121 123 126 127 127 127
230 232 234 236 231 217 214 209 181 173 172 175 175 168 166 170 174 173 176 178 174 174 169 165 170 171 172 169 164 161 158 157 155 150 149 147 145 144 140 138 137 135 134 133 130 127 127 127 126 124 120 117 115 116 117 119 122 120 112 103 95 90 81 75 83 93 98 102 106 109 110 111 112 110 109 107 104 104 104 103 103 106 110 115 116 117 117 118 119 120 122 124 126 128 128 127 126
222 225 230 233 229 221 215 210 204 195 182 176 174 170 169 173 177 176 179 178 173 174 172 167 169 171 171 174 171 166 164 162 158 154 153 153 151 148 145 141 140 139 138 135 132 130 128 127 127 125 120 116 113 112 114 118 122 120 111 104 98 92 86 82 83 89 100 109 111 113 115 114 111 107 106 104 104 105 105 104 103 105 110 113 115 115 115 117 120 122 124 125 127 127 126 126 124
215 223 230 231 226 219 215 215 210 196 186 182 179 179 180 181 185 183 181 180 174 172 173 170 171 172 172 176 176 173 170 164 160 160 158 158 156 153 149 146 143 143 143 141 137 132 130 130 128 126 122 116 113 110 112 117 122 120 114 108 101 95 90 88 86 87 96 105 109 113 115 113 110 107 106 105 105 105 104 104 105 107 110 111 112 114 116 119 121 123 124 124 124 125 125 124 123
211 222 229 227 226 218 213 216 211 196 197 195 186 189 195 191 193 189 185 183 177 173 173 173 174 175 175 178 181 180 176 169 166 165 161 160 159 158 156 150 147 146 146 145 143 136 131 132 131 128 125 120 115 112 112 116 119 120 116 110 106 101 97 93 90 90 93 99 104 108 111 111 111 108 106 106 105 105 104 104 106 108 109 111 113 116 118 119 120 122 123 122 124 125 124 124 121
206 219 228 225 226 220 213 216 213 201 204 205 196 195 197 195 195 194 191 188 181 176 175 177 176 177 179 180 183 182 179 174 170 166 162 163 163 162 162 156 150 147 148 147 145 141 134 132 132 131 128 123 119 117 115 118 119 118 116 112 109 104 101 98 95 93 95 97 100 103 105 107 108 108 106 107 107 106 105 105 107 108 109 111 114 116 117 119 119 120 121 122 124 125 126 124 120
204 214 225 223 224 222 217 217 214 205 204 208 205 199 197 199 199 196 195 193 188 180 179 183 179 178 182 182 183 182 178 175 172 170 167 167 167 168 166 162 157 151 149 150 148 145 139 135 133 132 130 126 122 119 117 117 118 117 116 113 111 108 104 101 99 97 97 97 99 100 103 105 106 108 110 110 110 110 109 108 109 109 110 112 113 115 118 119 119 120 121 122 125 127 126 124 120
205 208 219 222 222 222 221 219 215 213 211 210 207 204 206 207 201 196 197 198 195 186 183 186 184 181 182 183 182 180 178 175 174 174 172 172 171 171 170 167 163 159 154 153 153 152 146 140 136 135 131 128 123 119 117 116 116 117 116 113 112 111 108 104 101 100 99 99 100 100 101 104 106 109 110 111 112 112 112 112 112 112 112 112 114 116 117 118 118 120 121 122 125 127 126 123 119
206 204 214 221 221 222 223 220 217 216 217 214 212 211 210 207 200 197 200 201 199 194 188 186 189 187 182 183 181 178 179 176 176 177 176 177 175 174 174 174 171 166 161 158 158 157 155 149 144 142 135 130 125 118 115 113 114 115 115 114 113 113 112 107 104 103 102 101 100 101 102 103 106 108 110 111 112 112 112 113 114 114 114 115 116 117 117 117 118 119 119 121 123 125 124 121 118
207 205 211 220 222 222 225 225 222 219 218 218 217 215 211 207 201 201 203 204 202 199 194 188 193 193 185 185 181 177 180 179 179 181 179 178 177 178 178 178 178 174 169 164 163 162 161 160 154 151 143 134 129 121 118 115 113 114 114 113 113 114 115 112 109 106 105 105 103 103 104 105 107 108 110 111 112 113 113 114 115 116 116 116 118 118 117 117 116 116 118 120 121 121 122 121 118
209 208 210 218 222 224 230 228 225 223 222 223 222 218 216 213 210 210 208 206 204 202 199 194 195 197 191 187 183 180 183 183 183 183 182 179 177 181 182 181 183 181 178 172 168 168 166 166 162 158 152 141 134 126 121 120 118 116 115 115 115 114 117 116 115 112 109 108 107 106 106 106 107 108 110 112 113 115 115 117 118 118 117 117 119 119 118 116 114 116 120 122 122 121 121 120 117
203 208 211 216 224 230 231 228 225 223 223 225 226 224 221 219 217 216 211 208 208 206 203 198 196 198 195 189 185 185 186 186 188 184 183 183 181 184 183 183 187 187 186 180 173 171 171 170 166 162 160 150 142 137 129 126 125 124 122 119 119 118 118 120 120 119 117 114 112 111 109 108 108 110 111 113 115 116 118 119 120 121 120 120 123 120 117 116 118 121 125 127 126 125 123 120 119
197 202 211 215 224 232 228 224 223 221 221 221 223 226 225 222 220 217 213 210 208 209 207 203 200 198 197 193 190 191 189 189 191 188 186 187 186 187 185 185 191 191 191 187 179 174 174 173 169 165 165 159 152 148 143 138 133 131 130 126 124 123 122 123 124 125 125 124 122 119 116 114 113 113 114 115 118 119 121 121 122 125 123 122 123 119 116 119 125 129 134 134 132 131 130 126 123
198 201 210 212 219 226 223 221 224 222 221 223 224 225 225 223 222 219 217 213 207 208 208 206 204 200 198 197 195 194 190 189 191 190 189 190 191 190 189 189 191 192 194 192 185 178 175 174 172 170 169 168 164 161 157 153 146 136 132 131 128 126 124 124 125 127 130 131 131 129 126 124 122 120 119 118 119 120 121 122 124 127 127 124 123 122 123 127 132 137 139 138 138 140 142 137 132
203 206 208 211 218 222 218 217 227 226 219 229 228 220 223 225 222 221 220 216 207 207 208 205 204 202 201 199 199 197 190 189 191 190 190 193 196 194 192 194 192 192 193 192 190 183 177 174 175 176 175 174 172 171 169 164 157 145 137 135 132 129 127 125 125 126 131 135 137 138 136 134 132 131 129 126 125 126 125 125 126 127 129 130 129 130 131 135 141 146 146 143 147 160 163 155 147
206 206 204 223 230 226 221 216 222 222 216 228 220 206 218 226 221 223 221 214 208 207 208 206 203 203 203 199 200 200 194 191 191 190 193 194 197 199 197 196 195 194 192 192 192 186 180 177 178 180 182 181 177 178 180 173 166 157 147 139 135 133 129 126 126 126 129 134 138 141 142 142 142 140 139 138 137 137 137 134 129 129 132 135 135 134 135 142 146 148 156 158 158 173 182 182 174
203 201 196 223 237 230 220 216 218 218 219 231 224 205 215 222 218 221 217 212 209 207 205 205 206 205 206 203 201 201 198 196 193 193 197 196 197 201 201 198 197 198 196 193 193 188 182 179 182 185 186 187 184 183 186 182 174 169 160 149 143 137 133 131 129 125 126 132 137 139 143 144 146 146 145 145 145 148 148 144 140 139 142 148 150 144 138 144 148 150 159 168 172 177 191 208 201
200 205 197 196 221 225 212 208 214 215 218 228 227 218 218 220 221 219 215 215 213 208 203 204 207 205 206 208 204 201 201 198 196 197 199 198 199 202 202 200 199 201 200 197 195 191 186 183 187 192 192 192 192 188 188 188 185 182 178 174 170 157 146 143 137 132 129 130 132 136 141 145 147 149 148 147 148 150 151 152 153 153 154 165 176 155 139 147 155 154 158 170 180 177 193 226 220
197 213 211 201 206 211 205 202 208 210 215 221 219 218 219 220 222 216 213 215 212 208 205 205 209 207 205 209 208 204 202 201 199 199 200 200 201 202 204 203 201 203 202 201 198 193 191 189 190 197 199 196 198 195 189 192 196 195 194 193 191 181 167 165 160 150 141 138 137 134 136 141 146 151 150 149 150 151 153 156 158 159 161 179 195 186 182 188 176 166 173 185 192 183 191 232 235
193 201 214 220 212 208 206 205 208 209 212 216 214 217 217 216 222 219 214 211 206 207 208 206 209 209 207 209 210 205 202 202 202 202 202 202 203 202 204 206 204 204 204 204 203 198 197 196 194 199 203 201 200 200 193 196 204 204 203 204 204 199 189 184 177 161 152 160 161 149 142 139 140 146 149 151 154 154 158 162 163 167 171 188 206 202 202 208 200 203 214 216 222 216 214 235 243
200 200 205 215 209 208 211 208 212 214 212 212 214 217 216 214 224 221 214 213 207 205 209 210 209 210 211 210 209 207 203 202 202 204 205 204 204 204 205 208 207 205 205 205 205 204 202 202 200 201 204 205 203 201 199 202 209 210 207 206 208 208 202 196 191 182 182 187 184 173 165 156 149 147 144 146 153 151 151 154 157 163 167 184 205 199 202 220 220 223 228 229 231 230 229 236 242
209 212 210 213 206 206 209 206 212 217 214 213 215 218 217 221 232 227 217 222 221 214 213 216 211 206 207 208 208 207 206 206 204 206 207 206 207 206 205 208 210 209 207 205 206 208 207 206 207 206 205 207 206 201 200 205 211 213 210 204 204 207 206 204 199 194 196 197 199 199 193 187 185 182 163 153 152 148 146 145 142 144 148 159 177 178 202 221 221 221 223 227 230 231 232 235 241
211 218 214 216 211 209 210 208 214 219 216 215 217 221 220 224 236 237 227 226 225 222 219 219 214 205 205 207 208 207 208 209 209 210 210 209 210 209 207 207 209 212 210 206 207 209 211 211 211 210 208 209 209 204 202 207 212 217 215 206 202 205 206 206 200 195 197 199 200 205 207 205 205 212 210 192 180 171 166 160 151 149 145 142 144 156 189 207 211 216 218 221 227 232 236 238 241
211 215 206 212 212 209 212 211 215 217 215 216 220 224 223 224 233 238 238 235 230 226 225 222 215 209 212 212 210 210 212 212 213 215 215 213 213 212 210 208 208 212 212 209 209 210 213 215 215 214 211 211 212 210 208 210 215 220 221 213 205 205 208 209 204 197 196 200 200 202 207 209 208 211 215 213 207 201 200 200 195 183 172 174 173 173 193 196 198 207 211 216 222 228 235 236 238
214 216 206 209 207 208 215 214 215 215 213 217 222 225 226 227 230 231 237 245 237 226 225 225 219 212 214 217 217 215 217 219 219 219 219 219 219 215 212 211 210 211 212 211 211 213 215 216 217 217 215 214 214 215 214 215 219 223 224 222 215 209 207 210 211 204 199 200 200 200 203 207 208 209 210 211 214 214 216 217 215 217 218 219 216 210 217 223 217 213 215 218 223 226 228 229 236
215 216 212 209 201 212 221 218 217 217 214 217 224 226 226 228 228 222 229 248 236 217 216 220 218 218 216 217 224 224 225 229 223 219 219 219 220 218 213 211 211 211 211 212 213 215 217 219 219 219 218 217 217 218 218 219 224 228 228 226 223 217 213 213 216 212 205 203 204 204 203 206 209 208 205 207 213 214 216 217 214 214 221 225 227 226 227 231 233 232 230 233 235 230 221 219 231
216 212 212 211 206 213 223 223 224 226 223 221 225 228 227 231 231 223 226 242 227 209 211 217 210 213 217 216 224 228 232 236 224 216 216 217 217 217 213 210 211 212 211 213 215 216 218 220 221 221 220 220 219 219 220 221 225 231 233 231 226 222 218 216 218 218 212 207 209 210 205 206 210 209 205 206 211 211 209 211 209 208 212 218 225 229 230 232 233 235 236 243 248 243 235 228 225
219 213 210 213 213 209 217 227 225 227 233 230 228 230 231 235 235 230 232 242 233 217 220 227 218 214 217 219 225 228 231 232 223 217 217 216 214 212 210 210 211 214 214 215 217 218 220 222 223 222 222 222 221 220 221 221 225 231 235 235 232 227 224 221 221 222 218 212 214 218 212 209 209 212 218 217 215 215 212 208 207 207 211 215 220 226 228 232 235 235 235 241 249 252 254 252 236
218 219 214 212 212 211 221 236 229 221 227 230 227 228 233 239 240 241 244 246 243 234 230 232 229 224 223 222 223 228 231 229 226 225 223 218 213 208 206 208 211 215 217 218 219 220 222 224 225 225 224 224 224 223 222 222 225 230 234 236 235 233 231 229 226 225 224 219 217 220 221 221 215 210 221 227 226 227 223 217 215 214 218 220 224 227 229 235 239 240 238 238 244 251 257 257 248
200 219 222 218 214 214 215 224 231 228 227 226 224 223 229 240 242 241 245 245 240 234 233 235 234 231 230 227 225 227 231 231 228 229 227 219 212 206 203 206 211 214 218 220 222 224 225 227 228 228 227 226 225 226 224 223 224 229 233 234 234 233 234 234 230 228 228 225 220 222 225 231 231 224 226 231 234 237 233 228 225 222 225 228 228 230 233 239 240 241 241 240 245 251 252 254 252
195 197 218 221 218 222 218 211 210 222 232 231 224 221 224 235 242 239 237 238 237 233 231 233 235 237 239 235 232 233 235 235 232 229 229 222 214 206 203 206 211 215 219 222 224 227 229 230 231 231 231 230 228 227 227 226 225 228 231 232 231 230 231 234 234 233 233 229 225 228 231 233 236 239 242 241 240 241 241 238 233 228 228 231 234 235 234 238 240 240 241 241 240 240 247 256 258
206 201 206 211 211 222 228 223 213 210 230 238 231 229 227 229 236 240 237 233 234 237 236 235 235 238 243 243 237 240 242 237 233 231 229 227 221 213 210 211 213 217 221 224 226 230 232 234 234 234 234 233 231 230 230 229 228 229 231 233 232 230 229 231 234 236 238 235 229 229 233 234 234 239 246 247 247 247 247 246 242 236 232 231 236 238 236 237 238 238 241 245 244 242 248 259 261
218 214 213 208 207 212 222 227 223 214 216 232 237 236 234 232 232 235 239 237 234 236 238 238 234 231 241 249 242 239 241 235 232 233 230 229 227 222 220 218 217 219 223 227 229 230 232 235 236 237 236 235 234 233 233 232 232 232 233 234 234 232 230 231 233 236 238 239 235 232 232 233 233 238 245 249 251 252 252 251 251 248 241 232 233 236 238 239 238 236 241 251 258 257 256 261 263
224 221 218 212 211 214 215 222 227 222 214 211 230 240 239 241 241 235 233 233 231 229 232 237 237 232 235 245 243 239 240 235 231 233 233 232 230 225 225 224 222 223 225 228 229 227 229 231 232 235 238 237 236 236 235 235 234 235 235 236 237 235 233 233 235 237 237 237 237 235 234 234 233 236 241 243 248 254 254 251 249 251 246 239 237 238 239 243 243 240 238 245 258 265 263 264 266